| time (UTC) | temp F | wind direction | speed MPH | gust MPH | rain 1hr in | rain 24hr in | rain mn in | humidity % | barometer mb |
| 20260505003904 | 66 | 184 | 0.0 | 0.0 | 0.00 | 0.00 | 0.00 | 42 | 1010.5 |
| 20260505003401 | 66 | 184 | 0.0 | 0.0 | 0.00 | 0.00 | 0.00 | 41 | 1010.5 |
| 20260505002857 | 66 | 184 | 0.0 | 0.0 | 0.00 | 0.00 | 0.00 | 41 | 1010.7 |
| 20260505002354 | 66 | 182 | 0.0 | 0.0 | 0.00 | 0.00 | 0.00 | 40 | 1010.7 |
| 20260505001853 | 67 | 194 | 0.0 | 0.0 | 0.00 | 0.00 | 0.00 | 40 | 1010.8 |
| 20260505001349 | 67 | 181 | 1.0 | 1.0 | 0.00 | 0.00 | 0.00 | 39 | 1010.6 |
| 20260505000846 | 67 | 186 | 0.0 | 0.0 | 0.00 | 0.00 | 0.00 | 38 | 1010.6 |
| 20260505000344 | 68 | 158 | 0.0 | 1.0 | 0.00 | 0.00 | 0.00 | 37 | 1010.7 |
| 20260504235840 | 68 | 184 | 0.0 | 1.0 | 0.00 | 0.00 | 0.00 | 37 | 1010.5 |
| 20260504235338 | 68 | 156 | 2.0 | 2.0 | 0.00 | 0.00 | 0.00 | 36 | 1010.5 |
| 20260504234834 | 68 | 160 | 1.0 | 2.0 | 0.00 | 0.00 | 0.00 | 35 | 1010.9 |
| 20260504234332 | 68 | 169 | 1.0 | 2.0 | 0.00 | 0.00 | 0.00 | 34 | 1010.7 |
| 20260504233828 | 69 | 183 | 1.0 | 1.0 | 0.00 | 0.00 | 0.00 | 34 | 1010.6 |
| 20260504233324 | 69 | 143 | 2.0 | 2.0 | 0.00 | 0.00 | 0.00 | 33 | 1010.6 |
| 20260504232821 | 69 | 153 | 0.0 | 1.0 | 0.00 | 0.00 | 0.00 | 33 | 1010.6 |
| 20260504232318 | 69 | 180 | 1.0 | 1.0 | 0.00 | 0.00 | 0.00 | 32 | 1010.6 |
| 20260504231815 | 70 | 121 | 2.0 | 3.0 | 0.00 | 0.00 | 0.00 | 31 | 1010.8 |
| 20260504231311 | 70 | 116 | 2.0 | 3.0 | 0.00 | 0.00 | 0.00 | 31 | 1010.6 |
| 20260504230808 | 70 | 88 | 5.0 | 6.0 | 0.00 | 0.00 | 0.00 | 30 | 1010.8 |
| 20260504230306 | 70 | 116 | 2.0 | 2.0 | 0.00 | 0.00 | 0.00 | 31 | 1010.8 |
| 20260504225804 | 70 | 114 | 4.0 | 4.0 | 0.00 | 0.00 | 0.00 | 31 | 1010.8 |
| 20260504225300 | 70 | 137 | 4.0 | 6.0 | 0.00 | 0.00 | 0.00 | 32 | 1010.5 |
| 20260504224757 | 71 | 150 | 7.0 | 11.0 | 0.00 | 0.00 | 0.00 | 32 | 1010.7 |
| 20260504224255 | 71 | 150 | 4.0 | 6.0 | 0.00 | 0.00 | 0.00 | 32 | 1010.5 |
| 20260504223751 | 71 | 181 | 3.0 | 4.0 | 0.00 | 0.00 | 0.00 | 32 | 1010.4 |
| 20260504223247 | 71 | 82 | 4.0 | 7.0 | 0.00 | 0.00 | 0.00 | 31 | 1010.6 |
| 20260504222744 | 72 | 84 | 5.0 | 7.0 | 0.00 | 0.00 | 0.00 | 31 | 1010.4 |
| 20260504222240 | 72 | 157 | 1.0 | 1.0 | 0.00 | 0.00 | 0.00 | 30 | 1010.5 |
| 20260504221738 | 72 | 139 | 2.0 | 2.0 | 0.00 | 0.00 | 0.00 | 30 | 1010.3 |
| 20260504221235 | 72 | 109 | 2.0 | 3.0 | 0.00 | 0.00 | 0.00 | 30 | 1010.5 |
| 20260504220731 | 72 | 157 | 3.0 | 4.0 | 0.00 | 0.00 | 0.00 | 31 | 1010.5 |
| 20260504220229 | 73 | 175 | 5.0 | 7.0 | 0.00 | 0.00 | 0.00 | 29 | 1010.5 |
| 20260504215726 | 73 | 158 | 7.0 | 8.0 | 0.00 | 0.00 | 0.00 | 29 | 1010.3 |
| 20260504215223 | 73 | 142 | 5.0 | 6.0 | 0.00 | 0.00 | 0.00 | 29 | 1010.5 |
| 20260504214718 | 73 | 116 | 5.0 | 7.0 | 0.00 | 0.00 | 0.00 | 29 | 1010.5 |
| 20260504214215 | 73 | 114 | 7.0 | 9.0 | 0.00 | 0.00 | 0.00 | 28 | 1010.5 |
| 20260504213712 | 73 | 184 | 2.0 | 3.0 | 0.00 | 0.00 | 0.00 | 28 | 1010.5 |
| 20260504213208 | 74 | 46 | 4.0 | 4.0 | 0.00 | 0.00 | 0.00 | 28 | 1010.5 |
| 20260504212705 | 74 | 165 | 3.0 | 3.0 | 0.00 | 0.00 | 0.00 | 27 | 1010.5 |
| 20260504212202 | 74 | 144 | 5.0 | 8.0 | 0.00 | 0.00 | 0.00 | 27 | 1010.6 |
| 20260504211659 | 75 | 131 | 6.0 | 8.0 | 0.00 | 0.00 | 0.00 | 26 | 1010.5 |
| 20260504211155 | 77 | 144 | 1.0 | 2.0 | 0.00 | 0.00 | 0.00 | 25 | 1010.4 |
| 20260504210653 | 77 | 173 | 1.0 | 1.0 | 0.00 | 0.00 | 0.00 | 22 | 1010.6 |
| 20260504210149 | 77 | 224 | 0.0 | 0.0 | 0.00 | 0.00 | 0.00 | 22 | 1010.5 |
| 20260504205647 | 77 | 225 | 2.0 | 2.0 | 0.00 | 0.00 | 0.00 | 21 | 1010.4 |
| 20260504205144 | 77 | 154 | 2.0 | 3.0 | 0.00 | 0.00 | 0.00 | 20 | 1010.5 |
| 20260504204643 | 77 | 211 | 1.0 | 2.0 | 0.00 | 0.00 | 0.00 | 21 | 1010.7 |
| 20260504204141 | 77 | 215 | 2.0 | 2.0 | 0.00 | 0.00 | 0.00 | 21 | 1010.5 |
| 20260504203639 | 77 | 247 | 4.0 | 4.0 | 0.00 | 0.00 | 0.00 | 21 | 1010.7 |
| 20260504203137 | 77 | 239 | 4.0 | 4.0 | 0.00 | 0.00 | 0.00 | 21 | 1010.8 |
| 20260504202637 | 77 | 225 | 2.0 | 2.0 | 0.00 | 0.00 | 0.00 | 21 | 1010.7 |
| 20260504202134 | 76 | 163 | 1.0 | 2.0 | 0.00 | 0.00 | 0.00 | 23 | 1010.8 |
| 20260504201631 | 76 | 175 | 5.0 | 6.0 | 0.00 | 0.00 | 0.00 | 22 | 1010.8 |
| 20260504201129 | 76 | 238 | 4.0 | 4.0 | 0.00 | 0.00 | 0.00 | 23 | 1010.9 |
| 20260504200626 | 76 | 233 | 5.0 | 6.0 | 0.00 | 0.00 | 0.00 | 23 | 1011.1 |
| 20260504200122 | 77 | 163 | 2.0 | 3.0 | 0.00 | 0.00 | 0.00 | 23 | 1011.0 |
| 20260504195618 | 76 | 186 | 1.0 | 2.0 | 0.00 | 0.00 | 0.00 | 21 | 1011.1 |
| 20260504195114 | 77 | 240 | 3.0 | 4.0 | 0.00 | 0.00 | 0.00 | 23 | 1011.2 |
| 20260504194611 | 76 | 186 | 1.0 | 2.0 | 0.00 | 0.00 | 0.00 | 22 | 1011.3 |
| 20260504194107 | 75 | 183 | 1.0 | 1.0 | 0.00 | 0.00 | 0.00 | 22 | 1011.5 |
| 20260504193603 | 76 | 243 | 8.0 | 13.0 | 0.00 | 0.00 | 0.00 | 21 | 1011.5 |
| 20260504193102 | 76 | 266 | 5.0 | 6.0 | 0.00 | 0.00 | 0.00 | 22 | 1011.6 |
| 20260504192600 | 75 | 217 | 1.0 | 3.0 | 0.00 | 0.00 | 0.00 | 23 | 1011.6 |
| 20260504192058 | 74 | 244 | 4.0 | 4.0 | 0.00 | 0.00 | 0.00 | 23 | 1011.6 |
| 20260504191556 | 74 | 279 | 6.0 | 7.0 | 0.00 | 0.00 | 0.00 | 23 | 1011.8 |
| 20260504191051 | 75 | 249 | 8.0 | 10.0 | 0.00 | 0.00 | 0.00 | 23 | 1011.9 |
| 20260504190548 | 75 | 259 | 5.0 | 6.0 | 0.00 | 0.00 | 0.00 | 22 | 1011.9 |
| 20260504190044 | 74 | 270 | 9.0 | 10.0 | 0.00 | 0.00 | 0.00 | 24 | 1012.0 |
| 20260504185541 | 75 | 222 | 1.0 | 2.0 | 0.00 | 0.00 | 0.00 | 23 | 1012.0 |
| 20260504185038 | 75 | 181 | 2.0 | 2.0 | 0.00 | 0.00 | 0.00 | 22 | 1012.2 |
| 20260504184533 | 75 | 221 | 1.0 | 3.0 | 0.00 | 0.00 | 0.00 | 22 | 1012.4 |
| 20260504184029 | 74 | 257 | 4.0 | 7.0 | 0.00 | 0.00 | 0.00 | 22 | 1012.3 |
| 20260504183526 | 75 | 171 | 3.0 | 3.0 | 0.00 | 0.00 | 0.00 | 21 | 1012.3 |
| 20260504183024 | 74 | 264 | 4.0 | 7.0 | 0.00 | 0.00 | 0.00 | 22 | 1012.5 |
| 20260504182520 | 75 | 114 | 1.0 | 2.0 | 0.00 | 0.00 | 0.00 | 21 | 1012.5 |
| 20260504182018 | 74 | 196 | 2.0 | 2.0 | 0.00 | 0.00 | 0.00 | 21 | 1012.8 |
| 20260504181515 | 74 | 193 | 3.0 | 4.0 | 0.00 | 0.00 | 0.00 | 21 | 1012.4 |
| 20260504181014 | 73 | 222 | 3.0 | 3.0 | 0.00 | 0.00 | 0.00 | 21 | 1012.5 |
| 20260504180512 | 73 | 264 | 4.0 | 7.0 | 0.00 | 0.00 | 0.00 | 23 | 1012.6 |
| 20260504180010 | 73 | 251 | 5.0 | 6.0 | 0.00 | 0.00 | 0.00 | 22 | 1012.6 |
| 20260504175507 | 74 | 261 | 8.0 | 10.0 | 0.00 | 0.00 | 0.00 | 21 | 1012.9 |
| 20260504175004 | 73 | 229 | 2.0 | 3.0 | 0.00 | 0.00 | 0.00 | 21 | 1013.0 |
| 20260504174502 | 75 | 253 | 5.0 | 8.0 | 0.00 | 0.00 | 0.00 | 21 | 1012.9 |
| 20260504173959 | 73 | 170 | 1.0 | 1.0 | 0.00 | 0.00 | 0.00 | 22 | 1013.0 |
| 20260504173455 | 74 | 262 | 4.0 | 4.0 | 0.00 | 0.00 | 0.00 | 21 | 1013.0 |
| 20260504172953 | 74 | 193 | 0.0 | 1.0 | 0.00 | 0.00 | 0.00 | 21 | 1013.2 |
| 20260504172448 | 73 | 118 | 1.0 | 1.0 | 0.00 | 0.00 | 0.00 | 20 | 1013.2 |
| 20260504171945 | 73 | 233 | 1.0 | 2.0 | 0.00 | 0.00 | 0.00 | 21 | 1013.3 |
| 20260504171443 | 72 | 243 | 2.0 | 3.0 | 0.00 | 0.00 | 0.00 | 21 | 1013.4 |
| 20260504170939 | 72 | 245 | 7.0 | 9.0 | 0.00 | 0.00 | 0.00 | 21 | 1013.4 |
| 20260504170436 | 72 | 251 | 5.0 | 6.0 | 0.00 | 0.00 | 0.00 | 22 | 1013.1 |
| 20260504160355 | 70 | 246 | 2.0 | 3.0 | 0.00 | 0.00 | 0.00 | 24 | 1013.9 |
| 20260504150820 | 68 | 273 | 4.0 | 4.0 | 0.00 | 0.00 | 0.00 | 22 | 1014.5 |
| 20260504150316 | 68 | 257 | 4.0 | 4.0 | 0.00 | 0.00 | 0.00 | 23 | 1014.7 |
| 20260504141246 | 64 | 243 | 3.0 | 3.0 | 0.00 | 0.00 | 0.00 | 29 | 1015.2 |
| 20260504140742 | 63 | 222 | 0.0 | 0.0 | 0.00 | 0.00 | 0.00 | 32 | 1014.9 |
| 20260504140238 | 64 | 256 | 5.0 | 7.0 | 0.00 | 0.00 | 0.00 | 32 | 1015.0 |
| 20260504130707 | 58 | 251 | 4.0 | 4.0 | 0.00 | 0.00 | 0.00 | 38 | 1015.1 |
| 20260504130203 | 58 | 267 | 5.0 | 6.0 | 0.00 | 0.00 | 0.00 | 38 | 1015.1 |
| 20260504120127 | 54 | 247 | 2.0 | 3.0 | 0.00 | 0.00 | 0.00 | 43 | 1015.4 |
| 20260504110554 | 50 | 218 | 0.0 | 0.0 | 0.00 | 0.00 | 0.00 | 51 | 1015.7 |
| 20260504100516 | 50 | 200 | 0.0 | 0.0 | 0.00 | 0.00 | 0.00 | 51 | 1015.7 |
| 20260504081909 | 50 | 216 | 0.0 | 0.0 | 0.00 | 0.00 | 0.00 | 48 | 1016.1 |
| 20260504081406 | 50 | 219 | 0.0 | 0.0 | 0.00 | 0.00 | 0.00 | 47 | 1016.3 |
| 20260504080902 | 50 | 220 | 0.0 | 0.0 | 0.00 | 0.00 | 0.00 | 47 | 1016.2 |
| 20260504080359 | 50 | 220 | 0.0 | 1.0 | 0.00 | 0.00 | 0.00 | 46 | 1015.9 |
| 20260504070326 | 49 | 216 | 0.0 | 0.0 | 0.00 | 0.00 | 0.00 | 46 | 1016.3 |
| 20260504060247 | 48 | 216 | 0.0 | 0.0 | 0.00 | 0.00 | 0.00 | 47 | 1016.4 |
| 20260504050715 | 46 | 216 | 0.0 | 0.0 | 0.00 | 0.00 | 0.00 | 47 | 1016.3 |
| 20260504050212 | 46 | 216 | 0.0 | 0.0 | 0.00 | 0.00 | 0.00 | 47 | 1016.2 |
| 20260504045709 | 47 | 216 | 0.0 | 0.0 | 0.00 | 0.00 | 0.00 | 46 | 1016.4 |
| 20260504045209 | 47 | 216 | 0.0 | 0.0 | 0.00 | 0.00 | 0.00 | 46 | 1016.4 |
| 20260504044708 | 47 | 216 | 0.0 | 0.0 | 0.00 | 0.00 | 0.00 | 46 | 1016.4 |
| 20260504044204 | 47 | 216 | 0.0 | 0.0 | 0.00 | 0.00 | 0.00 | 47 | 1016.3 |
| 20260504043701 | 46 | 216 | 0.0 | 0.0 | 0.00 | 0.00 | 0.00 | 47 | 1016.3 |
| 20260504043158 | 46 | 216 | 0.0 | 0.0 | 0.00 | 0.00 | 0.00 | 47 | 1016.3 |
| 20260504042655 | 46 | 216 | 0.0 | 0.0 | 0.00 | 0.00 | 0.00 | 46 | 1016.3 |
| 20260504042152 | 46 | 216 | 0.0 | 0.0 | 0.00 | 0.00 | 0.00 | 46 | 1016.4 |
| 20260504041648 | 47 | 216 | 0.0 | 0.0 | 0.00 | 0.00 | 0.00 | 45 | 1016.3 |
| 20260504041144 | 47 | 216 | 0.0 | 0.0 | 0.00 | 0.00 | 0.00 | 45 | 1016.4 |
| 20260504040641 | 47 | 216 | 0.0 | 0.0 | 0.00 | 0.00 | 0.00 | 45 | 1016.4 |
| 20260504040138 | 48 | 216 | 0.0 | 0.0 | 0.00 | 0.00 | 0.00 | 44 | 1016.3 |
| 20260504035635 | 48 | 217 | 0.0 | 0.0 | 0.00 | 0.00 | 0.00 | 44 | 1016.2 |
| 20260504035131 | 48 | 217 | 0.0 | 0.0 | 0.00 | 0.00 | 0.00 | 43 | 1016.2 |
| 20260504034629 | 47 | 222 | 0.0 | 0.0 | 0.00 | 0.00 | 0.00 | 45 | 1016.2 |
| 20260504034126 | 47 | 213 | 0.0 | 0.0 | 0.00 | 0.00 | 0.00 | 46 | 1016.0 |
| 20260504033624 | 47 | 215 | 0.0 | 0.0 | 0.00 | 0.00 | 0.00 | 45 | 1016.0 |
| 20260504033121 | 47 | 215 | 0.0 | 0.0 | 0.00 | 0.00 | 0.00 | 46 | 1015.8 |
| 20260504032618 | 48 | 215 | 0.0 | 0.0 | 0.00 | 0.00 | 0.00 | 46 | 1015.8 |
| 20260504032115 | 48 | 216 | 0.0 | 0.0 | 0.00 | 0.00 | 0.00 | 46 | 1016.0 |
| 20260504031612 | 48 | 216 | 0.0 | 0.0 | 0.00 | 0.00 | 0.00 | 45 | 1015.8 |
| 20260504031108 | 48 | 216 | 0.0 | 0.0 | 0.00 | 0.00 | 0.00 | 45 | 1015.7 |
| 20260504030605 | 48 | 216 | 0.0 | 0.0 | 0.00 | 0.00 | 0.00 | 45 | 1015.7 |
| 20260504030101 | 48 | 215 | 0.0 | 0.0 | 0.00 | 0.00 | 0.00 | 45 | 1015.8 |
| 20260504025558 | 49 | 215 | 0.0 | 0.0 | 0.00 | 0.00 | 0.00 | 44 | 1015.8 |
| 20260504025055 | 49 | 215 | 0.0 | 0.0 | 0.00 | 0.00 | 0.00 | 43 | 1015.7 |
| 20260504024552 | 49 | 216 | 0.0 | 0.0 | 0.00 | 0.00 | 0.00 | 43 | 1015.7 |
| 20260504024049 | 49 | 216 | 0.0 | 0.0 | 0.00 | 0.00 | 0.00 | 42 | 1015.7 |
| 20260504023546 | 49 | 216 | 0.0 | 0.0 | 0.00 | 0.00 | 0.00 | 43 | 1015.7 |
| 20260504023042 | 49 | 216 | 0.0 | 0.0 | 0.00 | 0.00 | 0.00 | 42 | 1015.8 |
| 20260504022537 | 50 | 216 | 0.0 | 0.0 | 0.00 | 0.00 | 0.00 | 41 | 1015.9 |
| 20260504022034 | 50 | 216 | 0.0 | 0.0 | 0.00 | 0.00 | 0.00 | 40 | 1015.8 |
| 20260504021532 | 50 | 216 | 0.0 | 0.0 | 0.00 | 0.00 | 0.00 | 40 | 1015.8 |
| 20260504021028 | 50 | 217 | 0.0 | 0.0 | 0.00 | 0.00 | 0.00 | 40 | 1015.7 |
| 20260504020525 | 50 | 218 | 0.0 | 0.0 | 0.00 | 0.00 | 0.00 | 39 | 1015.7 |
| 20260504020022 | 50 | 218 | 0.0 | 0.0 | 0.00 | 0.00 | 0.00 | 39 | 1015.7 |
| 20260504015518 | 51 | 218 | 0.0 | 0.0 | 0.00 | 0.00 | 0.00 | 38 | 1015.5 |
| 20260504015014 | 51 | 218 | 0.0 | 0.0 | 0.00 | 0.00 | 0.00 | 38 | 1015.6 |
| 20260504014510 | 51 | 218 | 0.0 | 0.0 | 0.00 | 0.00 | 0.00 | 37 | 1015.6 |
| 20260504014008 | 51 | 218 | 0.0 | 0.0 | 0.00 | 0.00 | 0.00 | 36 | 1015.5 |
| 20260504013506 | 51 | 218 | 0.0 | 0.0 | 0.00 | 0.00 | 0.00 | 35 | 1015.7 |
| 20260504013001 | 51 | 218 | 0.0 | 0.0 | 0.00 | 0.00 | 0.00 | 35 | 1015.8 |
| 20260504012500 | 52 | 218 | 0.0 | 0.0 | 0.00 | 0.00 | 0.00 | 34 | 1015.5 |
| 20260504011957 | 52 | 218 | 0.0 | 0.0 | 0.00 | 0.00 | 0.00 | 33 | 1015.5 |
| 20260504011453 | 53 | 218 | 0.0 | 0.0 | 0.00 | 0.00 | 0.00 | 32 | 1015.5 |
| 20260504010949 | 53 | 218 | 0.0 | 0.0 | 0.00 | 0.00 | 0.00 | 32 | 1015.3 |
| 20260504010446 | 53 | 218 | 0.0 | 0.0 | 0.00 | 0.00 | 0.00 | 31 | 1015.4 |
| 20260504005942 | 54 | 218 | 0.0 | 0.0 | 0.00 | 0.00 | 0.00 | 30 | 1015.3 |
| 20260504005439 | 55 | 218 | 0.0 | 0.0 | 0.00 | 0.00 | 0.00 | 29 | 1015.5 |
| 20260504004936 | 55 | 218 | 0.0 | 0.0 | 0.00 | 0.00 | 0.00 | 29 | 1015.4 |
| 20260504004434 | 56 | 221 | 0.0 | 0.0 | 0.00 | 0.00 | 0.00 | 27 | 1015.3 |